Касум-Исмаилов

Azerbaijan     40˚36′00″N   46˚46′58″E
temp.,
°C
wind,
m/s
gust,
m/s
humid.,
%
clouds,
%
prec.,
mm/h
press.,
hPa
HPBL,
m
27 november, fri
fri2701:00+3˚wnw117133 0.0 102422
04:00+3˚w126817 0.0 102523
07:00+2˚w12670 0.0 102724
10:00+5˚nne12625 0.0 1029186
13:00+7˚ene215729 0.0 1030747
16:00+8˚ese335319 0.0 1030962
19:00+6˚se34690 0.0 103289
22:00+4˚se34813 0.0 1033108
28 november, sat
sat2801:00+4˚sse228956 0.0 103475
04:00+3˚nw228439 0.0 103324
07:00+3˚wnw23774 0.0 103261
10:00+5˚nw227227 0.0 1032213
13:00+7˚ne216352 0.0 1029804
16:00+8˚e225967 0.0 1028827
19:00+6˚se127093 0.0 102923
22:00+4˚wsw117797 0.0 103022
29 november, sun
sun2901:00+4˚wnw237560 0.0 102922
04:00+4˚wnw337642 0.0 102930
07:00+4˚wnw3474100 0.0 102848
10:00+6˚nw3460100 0.0 1028259
13:00+8˚nw4454100 0.0 1026487
16:00+8˚nw3454100 0.0 1025443
19:00+7˚s1268100 0.4 1026174
22:00+6˚e1280100 1.1 1027133
30 november, mon
mon3001:00+5˚n1189100 0.6 1026181
04:00+5˚nw1289100 1.8 1025172
07:00+5˚n1189100 0.6 1025117
10:00+6˚ese1188100 0.6 1025159
13:00+8˚ese3479100 0.0 1024487
16:00+7˚se4483100 0.1 1023357
19:00+6˚se468596 0.0 1024291
22:00+5˚sse688495 0.0 1024342
1 december, tue
tue101:00+4˚sse688296 0.0 1025439
04:00+4˚sse687997 0.0 1024446
07:00+4˚sse577690 0.0 1024296
10:00+5˚se447094 0.0 1025359
13:00+7˚se226392 0.0 1024600
16:00+8˚e116172 0.0 1023772
19:00+6˚ese227247 0.0 102576
22:00+5˚sse228027 0.0 102626